Simultaneous Nadir Overpasses (SNOs) Predictions

Prediction of SNOs between METOP-B and NOAA-19 Satellite Orbit:

Table of predicted SNOs for the next 14.0 days since TLE Epoch: 2/15/2013
Index Date (METOP-B) Time (METOP-B) Lat,Lon (METOP-B) SZA (METOP-B ) Date (NOAA-19) Time (NOAA-19) Lat,Lon (NOAA-19) SZA (NOAA-19 ) Distance(km) Time Diff (sec)
1 02/23/2013 20:35:31 -73.24, 44.35 97.07 02/23/2013 20:34:21 -73.25, 44.25 97.04 3.50 70
2 02/23/2013 21:26:12 73.19,-148.41 82.88 02/23/2013 21:25:19 73.18,-148.34 82.88 2.44 53
3 02/23/2013 22:16:54 -73.17, 18.86 97.16 02/23/2013 22:16:24 -73.16, 18.93 97.16 2.37 30
4 02/23/2013 23:07:34 73.17,-173.79 82.84 02/23/2013 23:07:23 73.15,-173.78 82.81 3.12 11
5 02/23/2013 23:58:16 -73.15, -6.53 97.20 02/23/2013 23:58:28 -73.13, -6.51 97.23 2.34 12
6
